BTK7516 WARR-WIHH

Flight info

Callsign BTK7516
Flight time 1h 1m
Altitude 34000
Route LASEM T2 KALUT T6 KURUS
Aircraft A320/M-SDE3FGHIRWY/LB1

Departure

Time 2026-05-08 04:58
Airport Juanda International Airport (WARR)

Arrival

Time 2026-05-08 05:59
Airport Halim Perdanakusuma International Airport (WIHH)
Time Latitude Longitude Altitude Speed Heading
2026-05-08 04:31 -7.37616 112.79647 9 ft 0 kts
2026-05-08 04:48 -7.37627 112.79645 9 ft 4 kts
2026-05-08 04:48 -7.37654 112.79640 10 ft 4 kts
2026-05-08 04:48 -7.37676 112.79637 11 ft 4 kts
2026-05-08 04:49 -7.37700 112.79640 9 ft 4 kts 321°
2026-05-08 04:49 -7.37711 112.79657 9 ft 1 kts 279°
2026-05-08 04:49 -7.37711 112.79658 9 ft 0 kts 279°
2026-05-08 04:51 -7.37705 112.79618 9 ft 12 kts 279°
2026-05-08 04:52 -7.37690 112.79524 9 ft 13 kts 279°
2026-05-08 04:52 -7.37703 112.79451 10 ft 10 kts 212°
2026-05-08 04:52 -7.37774 112.79437 9 ft 10 kts 190°
2026-05-08 04:52 -7.37837 112.79426 9 ft 8 kts 190°
2026-05-08 04:53 -7.37890 112.79413 10 ft 8 kts 208°
2026-05-08 04:53 -7.37913 112.79339 9 ft 15 kts 276°
2026-05-08 04:53 -7.37897 112.79238 9 ft 14 kts 279°
2026-05-08 04:53 -7.37880 112.79138 9 ft 15 kts 279°
2026-05-08 04:54 -7.37865 112.79043 9 ft 13 kts 279°
2026-05-08 04:54 -7.37850 112.78951 9 ft 16 kts 279°
2026-05-08 04:54 -7.37829 112.78822 9 ft 19 kts 279°
2026-05-08 04:54 -7.37807 112.78686 9 ft 20 kts 279°
2026-05-08 04:55 -7.37785 112.78548 9 ft 20 kts 279°
2026-05-08 04:55 -7.37763 112.78411 9 ft 20 kts 279°
2026-05-08 04:55 -7.37739 112.78264 9 ft 22 kts 279°
2026-05-08 04:55 -7.37713 112.78104 9 ft 24 kts 279°
2026-05-08 04:56 -7.37685 112.77932 10 ft 27 kts 279°
2026-05-08 04:56 -7.37654 112.77735 9 ft 30 kts 279°
2026-05-08 04:56 -7.37621 112.77531 9 ft 25 kts 279°
2026-05-08 04:56 -7.37625 112.77402 10 ft 15 kts 227°
2026-05-08 04:57 -7.37721 112.77373 8 ft 14 kts 189°
2026-05-08 04:57 -7.37776 112.77407 9 ft 8 kts 99°
2026-05-08 04:57 -7.37780 112.77427 9 ft 9 kts 100°
2026-05-08 04:57 -7.37831 112.77737 9 ft 81 kts 99°
2026-05-08 04:58 -7.37951 112.78508 9 ft 139 kts 99°
2026-05-08 04:58 -7.38125 112.79607 210 ft 168 kts 98°
2026-05-08 04:58 -7.38324 112.80774 948 ft 169 kts 98°
2026-05-08 04:58 -7.38522 112.81935 1745 ft 168 kts 98°
2026-05-08 04:59 -7.38725 112.83128 2186 ft 182 kts 99°
2026-05-08 04:59 -7.38953 112.84471 2457 ft 207 kts 99°
2026-05-08 04:59 -7.39209 112.85981 2802 ft 231 kts 100°
2026-05-08 04:59 -7.39488 112.87659 3173 ft 254 kts 98°
2026-05-08 05:00 -7.39308 112.89457 3800 ft 267 kts 66°
2026-05-08 05:00 -7.38102 112.90879 4586 ft 275 kts 32°
2026-05-08 05:00 -7.36263 112.91397 5402 ft 282 kts 359°
2026-05-08 05:00 -7.34330 112.91008 6241 ft 286 kts 343°
2026-05-08 05:01 -7.32416 112.90412 7054 ft 290 kts 343°
2026-05-08 05:01 -7.30482 112.89807 7866 ft 293 kts 344°
2026-05-08 05:01 -7.28528 112.89197 8651 ft 296 kts 344°
2026-05-08 05:01 -7.26543 112.88615 9407 ft 299 kts 348°
2026-05-08 05:02 -7.24486 112.88267 10151 ft 301 kts 354°
2026-05-08 05:02 -7.22366 112.88070 10646 ft 315 kts 356°
2026-05-08 05:02 -7.20101 112.87921 10818 ft 338 kts 357°
2026-05-08 05:02 -7.17699 112.87670 11097 ft 355 kts 347°
2026-05-08 05:03 -7.15386 112.86757 11655 ft 362 kts 329°
2026-05-08 05:03 -7.13453 112.85134 12286 ft 365 kts 310°
2026-05-08 05:03 -7.12118 112.82962 12918 ft 368 kts 292°
2026-05-08 05:03 -7.11466 112.80469 13530 ft 371 kts 279°
2026-05-08 05:04 -7.11022 112.77905 14152 ft 373 kts 279°
2026-05-08 05:04 -7.10576 112.75357 14739 ft 376 kts 280°
2026-05-08 05:04 -7.10114 112.72753 15328 ft 379 kts 280°
2026-05-08 05:04 -7.09638 112.70091 15878 ft 383 kts 280°
2026-05-08 05:05 -7.09163 112.67445 16420 ft 386 kts 280°
2026-05-08 05:05 -7.08683 112.64780 16941 ft 389 kts 280°
2026-05-08 05:05 -7.08198 112.62094 17450 ft 392 kts 280°
2026-05-08 05:05 -7.07711 112.59388 17953 ft 394 kts 280°
2026-05-08 05:06 -7.07224 112.56664 18430 ft 397 kts 280°
2026-05-08 05:06 -7.06733 112.53920 18897 ft 400 kts 280°
2026-05-08 05:06 -7.06238 112.51158 19338 ft 402 kts 280°
2026-05-08 05:06 -7.05738 112.48378 19781 ft 405 kts 280°
2026-05-08 05:07 -7.05234 112.45578 20205 ft 408 kts 280°
2026-05-08 05:07 -7.04727 112.42760 20614 ft 411 kts 280°
2026-05-08 05:07 -7.04216 112.39922 21020 ft 414 kts 280°
2026-05-08 05:07 -7.03702 112.37065 21414 ft 416 kts 280°
2026-05-08 05:08 -7.03183 112.34190 21801 ft 419 kts 280°
2026-05-08 05:08 -7.02661 112.31300 22184 ft 421 kts 280°
2026-05-08 05:08 -7.01930 112.28477 22541 ft 424 kts 289°
2026-05-08 05:08 -7.00849 112.25709 22896 ft 426 kts 291°
2026-05-08 05:09 -6.99747 112.22932 23245 ft 428 kts 291°
2026-05-08 05:09 -6.98635 112.20139 23606 ft 431 kts 291°
2026-05-08 05:09 -6.97516 112.17331 23944 ft 434 kts 291°
2026-05-08 05:09 -6.96358 112.14521 24270 ft 436 kts 295°
2026-05-08 05:10 -6.94838 112.11871 24585 ft 439 kts 303°
2026-05-08 05:10 -6.91456 112.06722 25213 ft 443 kts 303°
2026-05-08 05:10 -6.89754 112.04127 25518 ft 445 kts 303°
2026-05-08 05:11 -6.88047 112.01517 25812 ft 447 kts 303°
2026-05-08 05:11 -6.86332 111.98896 26094 ft 449 kts 303°
2026-05-08 05:11 -6.84610 111.96263 26366 ft 452 kts 303°
2026-05-08 05:11 -6.82879 111.93619 26640 ft 453 kts 303°
2026-05-08 05:12 -6.81140 111.90964 26911 ft 456 kts 303°
2026-05-08 05:12 -6.79394 111.88297 27179 ft 457 kts 303°
2026-05-08 05:12 -6.77641 111.85619 27435 ft 459 kts 303°
2026-05-08 05:12 -6.75883 111.82930 27701 ft 461 kts 303°
2026-05-08 05:13 -6.74114 111.80226 27953 ft 463 kts 303°
2026-05-08 05:13 -6.72345 111.77522 28195 ft 465 kts 303°
2026-05-08 05:13 -6.70561 111.74798 28437 ft 466 kts 303°
2026-05-08 05:13 -6.68776 111.72076 28662 ft 468 kts 303°
2026-05-08 05:14 -6.66978 111.69336 28883 ft 469 kts 303°
2026-05-08 05:14 -6.65174 111.66594 29105 ft 471 kts 303°
2026-05-08 05:14 -6.63362 111.63844 29335 ft 472 kts 303°
2026-05-08 05:14 -6.61591 111.61057 29537 ft 474 kts 298°
2026-05-08 05:15 -6.60049 111.58125 29754 ft 475 kts 297°
2026-05-08 05:15 -6.58520 111.55174 29959 ft 477 kts 297°
2026-05-08 05:15 -6.56990 111.52212 30166 ft 478 kts 297°
2026-05-08 05:15 -6.55458 111.49249 30452 ft 477 kts 297°
2026-05-08 05:16 -6.53925 111.46294 30753 ft 476 kts 297°
2026-05-08 05:16 -6.52394 111.43345 31061 ft 475 kts 297°
2026-05-08 05:16 -6.50864 111.40401 31345 ft 475 kts 297°
2026-05-08 05:16 -6.49335 111.37464 31641 ft 474 kts 297°
2026-05-08 05:17 -6.47808 111.34532 31935 ft 473 kts 297°
2026-05-08 05:17 -6.46288 111.31602 32243 ft 472 kts 297°
2026-05-08 05:17 -6.44772 111.28678 32549 ft 471 kts 297°
2026-05-08 05:17 -6.43258 111.25760 32858 ft 470 kts 297°
2026-05-08 05:18 -6.41746 111.22850 33155 ft 469 kts 297°
2026-05-08 05:18 -6.40232 111.19945 33454 ft 469 kts 297°
2026-05-08 05:18 -6.38721 111.17046 33730 ft 468 kts 297°
2026-05-08 05:19 -6.35706 111.11265 33813 ft 465 kts 297°
2026-05-08 05:19 -6.32665 111.05528 33813 ft 465 kts 298°
2026-05-08 05:20 -6.29581 110.99822 33815 ft 464 kts 298°
2026-05-08 05:20 -6.26496 110.94115 33813 ft 464 kts 298°
2026-05-08 05:21 -6.23953 110.89374 33813 ft 464 kts 298°
2026-05-08 05:21 -6.20889 110.83668 33811 ft 464 kts 298°
2026-05-08 05:22 -6.17299 110.77001 33811 ft 463 kts 298°
2026-05-08 05:22 -6.14258 110.71345 33813 ft 463 kts 298°
2026-05-08 05:23 -6.11201 110.65653 33811 ft 463 kts 298°
2026-05-08 05:23 -6.08638 110.60886 33811 ft 462 kts 298°
2026-05-08 05:24 -6.05579 110.55203 33811 ft 462 kts 298°
2026-05-08 05:24 -6.02518 110.49522 33810 ft 462 kts 298°
2026-05-08 05:25 -5.99454 110.43845 33811 ft 462 kts 298°
2026-05-08 05:25 -5.97020 110.37896 33809 ft 462 kts 282°
2026-05-08 05:26 -5.96512 110.31483 33807 ft 462 kts 270°
2026-05-08 05:26 -5.96524 110.25030 33810 ft 462 kts 270°
2026-05-08 05:27 -5.96505 110.18574 33814 ft 462 kts 270°
2026-05-08 05:27 -5.96485 110.12154 33819 ft 462 kts 270°
2026-05-08 05:28 -5.96486 110.05697 33821 ft 462 kts 270°
2026-05-08 05:28 -5.96490 109.99246 33818 ft 462 kts 270°
2026-05-08 05:29 -5.96486 109.92795 33815 ft 462 kts 270°
2026-05-08 05:29 -5.96475 109.86345 33812 ft 462 kts 270°
2026-05-08 05:30 -5.96478 109.79901 33809 ft 461 kts 270°
2026-05-08 05:30 -5.96472 109.73457 33806 ft 461 kts 270°
2026-05-08 05:31 -5.96466 109.67013 33803 ft 461 kts 270°
2026-05-08 05:31 -5.96463 109.60569 33801 ft 461 kts 270°
2026-05-08 05:32 -5.96455 109.54122 33802 ft 462 kts 270°
2026-05-08 05:32 -5.96452 109.47668 33803 ft 462 kts 270°
2026-05-08 05:33 -5.96446 109.41210 33803 ft 462 kts 270°
2026-05-08 05:33 -5.96433 109.34747 33803 ft 463 kts 270°
2026-05-08 05:34 -5.96424 109.28274 33805 ft 464 kts 270°
2026-05-08 05:34 -5.96413 109.21787 33805 ft 464 kts 270°
2026-05-08 05:35 -5.96402 109.15298 33807 ft 465 kts 270°
2026-05-08 05:35 -5.96391 109.08802 33808 ft 465 kts 270°
2026-05-08 05:36 -5.96376 109.02301 33808 ft 466 kts 270°
2026-05-08 05:36 -5.96355 108.95791 33809 ft 466 kts 270°
2026-05-08 05:37 -5.96342 108.89273 33814 ft 467 kts 270°
2026-05-08 05:37 -5.96324 108.82751 33818 ft 467 kts 270°
2026-05-08 05:37 -5.96316 108.79486 33687 ft 469 kts 270°
2026-05-08 05:38 -5.96310 108.76211 33235 ft 469 kts 270°
2026-05-08 05:38 -5.96302 108.72938 32785 ft 469 kts 270°
2026-05-08 05:38 -5.96292 108.69660 32335 ft 470 kts 270°
2026-05-08 05:38 -5.96283 108.66374 31885 ft 471 kts 270°
2026-05-08 05:39 -5.96270 108.63078 31442 ft 473 kts 270°
2026-05-08 05:39 -5.96256 108.59772 30985 ft 474 kts 270°
2026-05-08 05:39 -5.96242 108.56460 30539 ft 474 kts 270°
2026-05-08 05:39 -5.96233 108.53160 30084 ft 471 kts 269°
2026-05-08 05:40 -5.96403 108.49889 29637 ft 467 kts 261°
2026-05-08 05:40 -5.97082 108.46716 29173 ft 463 kts 252°
2026-05-08 05:40 -5.98244 108.43720 28671 ft 458 kts 243°
2026-05-08 05:40 -5.99673 108.40872 28132 ft 455 kts 242°
2026-05-08 05:41 -6.01093 108.38044 27586 ft 452 kts 242°
2026-05-08 05:41 -6.02500 108.35232 27033 ft 447 kts 243°
2026-05-08 05:41 -6.03887 108.32456 26489 ft 444 kts 243°
2026-05-08 05:41 -6.05271 108.29690 25931 ft 441 kts 243°
2026-05-08 05:42 -6.06640 108.26948 25382 ft 437 kts 243°
2026-05-08 05:42 -6.07996 108.24224 24829 ft 434 kts 243°
2026-05-08 05:42 -6.09339 108.21522 24278 ft 431 kts 243°
2026-05-08 05:42 -6.10672 108.18840 23732 ft 427 kts 243°
2026-05-08 05:43 -6.11995 108.16179 23185 ft 424 kts 243°
2026-05-08 05:43 -6.13306 108.13538 22630 ft 421 kts 243°
2026-05-08 05:43 -6.14596 108.10913 22080 ft 417 kts 243°
2026-05-08 05:43 -6.15857 108.08337 21536 ft 414 kts 243°
2026-05-08 05:44 -6.17121 108.05749 20985 ft 411 kts 243°
2026-05-08 05:44 -6.18374 108.03182 20432 ft 408 kts 243°
2026-05-08 05:44 -6.19617 108.00633 19889 ft 405 kts 243°
2026-05-08 05:44 -6.20636 107.98009 19329 ft 403 kts 253°
2026-05-08 05:45 -6.21140 107.95250 18782 ft 401 kts 265°
2026-05-08 05:45 -6.21162 107.92453 18233 ft 400 kts 271°
2026-05-08 05:45 -6.21093 107.89668 17683 ft 398 kts 270°
2026-05-08 05:45 -6.21027 107.86895 17129 ft 396 kts 270°
2026-05-08 05:46 -6.20961 107.84135 16580 ft 394 kts 270°
2026-05-08 05:46 -6.20897 107.81388 16029 ft 392 kts 270°
2026-05-08 05:46 -6.20832 107.78652 15478 ft 391 kts 270°
2026-05-08 05:46 -6.20767 107.75928 14928 ft 389 kts 271°
2026-05-08 05:47 -6.20704 107.73214 14379 ft 388 kts 271°
2026-05-08 05:47 -6.20642 107.70512 13809 ft 386 kts 271°
2026-05-08 05:47 -6.20582 107.67857 13263 ft 373 kts 271°
2026-05-08 05:47 -6.20523 107.65291 12714 ft 364 kts 271°
2026-05-08 05:48 -6.20463 107.62768 12178 ft 359 kts 271°
2026-05-08 05:48 -6.20402 107.60272 11673 ft 356 kts 271°
2026-05-08 05:48 -6.20339 107.57794 11170 ft 353 kts 271°
2026-05-08 05:48 -6.20275 107.55329 10671 ft 354 kts 271°
2026-05-08 05:49 -6.20212 107.52864 10175 ft 351 kts 271°
2026-05-08 05:49 -6.20152 107.50451 9684 ft 338 kts 271°
2026-05-08 05:49 -6.20097 107.48151 9306 ft 321 kts 271°
2026-05-08 05:49 -6.20043 107.45960 8933 ft 308 kts 271°
2026-05-08 05:50 -6.19990 107.43831 8582 ft 303 kts 271°
2026-05-08 05:50 -6.19938 107.41720 8263 ft 302 kts 271°
2026-05-08 05:50 -6.19884 107.39617 7937 ft 299 kts 271°
2026-05-08 05:50 -6.19833 107.37534 7612 ft 297 kts 271°
2026-05-08 05:51 -6.19780 107.35465 7289 ft 295 kts 271°
2026-05-08 05:51 -6.19726 107.33410 6961 ft 294 kts 271°
2026-05-08 05:51 -6.19671 107.31362 6633 ft 292 kts 271°
2026-05-08 05:51 -6.19620 107.29328 6360 ft 291 kts 271°
2026-05-08 05:52 -6.19590 107.27303 6116 ft 289 kts 269°
2026-05-08 05:52 -6.19594 107.25285 5866 ft 288 kts 269°
2026-05-08 05:52 -6.19608 107.23276 5617 ft 287 kts 269°
2026-05-08 05:52 -6.19623 107.21276 5364 ft 285 kts 269°
2026-05-08 05:53 -6.19637 107.19288 5113 ft 284 kts 269°
2026-05-08 05:53 -6.19648 107.17311 4863 ft 282 kts 269°
2026-05-08 05:53 -6.19657 107.15347 4611 ft 278 kts 269°
2026-05-08 05:53 -6.19664 107.13468 4355 ft 260 kts 269°
2026-05-08 05:54 -6.19670 107.11704 4109 ft 246 kts 269°
2026-05-08 05:54 -6.19675 107.10002 3868 ft 242 kts 269°
2026-05-08 05:54 -6.19678 107.08331 3643 ft 234 kts 269°
2026-05-08 05:54 -6.19682 107.06738 3445 ft 222 kts 269°
2026-05-08 05:55 -6.19688 107.05224 3253 ft 213 kts 268°
2026-05-08 05:55 -6.19935 107.03794 3025 ft 205 kts 247°
2026-05-08 05:55 -6.20517 107.02508 2741 ft 200 kts 244°
2026-05-08 05:55 -6.21090 107.01261 2473 ft 192 kts 244°
2026-05-08 05:56 -6.21630 107.00080 2240 ft 179 kts 244°
2026-05-08 05:56 -6.22133 106.98985 2000 ft 168 kts 244°
2026-05-08 05:56 -6.22605 106.97957 1800 ft 154 kts 244°
2026-05-08 05:56 -6.23041 106.97006 1588 ft 147 kts 245°
2026-05-08 05:57 -6.23463 106.96087 1402 ft 143 kts 245°
2026-05-08 05:57 -6.23879 106.95180 1206 ft 142 kts 245°
2026-05-08 05:57 -6.24293 106.94278 1018 ft 142 kts 246°
2026-05-08 05:57 -6.24706 106.93376 827 ft 142 kts 246°
2026-05-08 05:58 -6.25122 106.92470 642 ft 143 kts 246°
2026-05-08 05:58 -6.25541 106.91559 463 ft 144 kts 246°
2026-05-08 05:58 -6.25958 106.90645 244 ft 143 kts 246°
2026-05-08 05:58 -6.26369 106.89743 106 ft 136 kts 246°
2026-05-08 05:59 -6.26722 106.88978 97 ft 103 kts 245°
2026-05-08 05:59 -6.26968 106.88433 91 ft 74 kts 245°
2026-05-08 05:59 -6.27122 106.88104 94 ft 33 kts 244°
2026-05-08 05:59 -6.27159 106.87959 95 ft 20 kts 269°
2026-05-08 06:00 -6.27199 106.87934 96 ft 9 kts 115°
2026-05-08 06:00 -6.27171 106.88007 95 ft 13 kts 65°
2026-05-08 06:00 -6.27132 106.88091 94 ft 13 kts 65°
2026-05-08 06:00 -6.27093 106.88176 94 ft 14 kts 65°
2026-05-08 06:01 -6.27046 106.88278 92 ft 18 kts 65°
2026-05-08 06:01 -6.26992 106.88396 92 ft 20 kts 65°
2026-05-08 06:01 -6.26940 106.88506 93 ft 8 kts 64°
2026-05-08 06:01 -6.26901 106.88537 93 ft 7 kts 15°
2026-05-08 06:02 -6.26864 106.88526 93 ft 5 kts 335°
2026-05-08 06:02 -6.26823 106.88508 94 ft 6 kts 335°
2026-05-08 06:02 -6.26788 106.88492 94 ft 6 kts 335°
2026-05-08 06:02 -6.26744 106.88483 94 ft 9 kts 15°
2026-05-08 06:03 -6.26709 106.88531 96 ft 7 kts 65°
2026-05-08 06:03 -6.26677 106.88544 95 ft 5 kts 339°
2026-05-08 06:03 -6.26657 106.88534 95 ft 1 kts 336°
2026-05-08 06:03 -6.26650 106.88531 95 ft 1 kts 336°
2026-05-08 06:04 -6.26647 106.88530 95 ft 0 kts 336°
2026-05-08 06:04 -6.26646 106.88530 95 ft 0 kts 336°